"Pseudo-MPEC" for P10QYbl

Created 2019 Sep 12 12:07:15 UT using Find_Orb

Click here for an explanation of pseudo-MPECs

 
 Astrometry: 
     P10QYbl  C2019 08 28\2uQrU:c-!nFItIevx=rwIU@qy_1DAstrometrym*syVN9?[oh\bF51
     P10QYbl  C2019 08 28_^9]!e5Kt/+lbk#'iKebJBkc;X)bQF!5__jJNoD7!jyFH5MlwwhBF51
     P10QYbl  C2019 08 28:)IM3eX3gGrkvTa@kejb3KQ`q(7_K+Bt2/_jBLk:R]6`D1+:vPc!F51
     P10QYbl  C2019 08 28SIL[:redacted;1`E-ZX=t_nT-+jm)!SCQ)E:*R=0gWuNW(biE\kF51
     P10QYbl |C2019 08 30_799DDclick)kM_DJjMo+1!HAiZp=7y%DK]SevQcZBksA;cHeH4f807
     P10QYbl |C2019 08 30qUU+LLB%,#HMaUl]`0q\Uj#JT5V:V'Ie2Ol.Tx0X8?/*VonNQIr/807
     P10QYbl |C2019 08 30tL5c)hereO?0x_wNQ+\O:)T388D-aL80DG^q6HTeAZoF1!(:qwC%807
     P10QYbl  C2019 08 300[=TB$Z[i%\MPsO*8q0QrV=M_WforD\UIF6@U3y5nh:Poj#ENp+LW87
     P10QYbl  C2019 08 30!W]*vP(2+QXuKg.J#V8qabd-DZWO-X`DQD@[LRf#0;ORJS/lgTv,W87
     P10QYbl  C2019 08 30;AfrJM*eq[/7\i\explanation9Txh,B;\hu$vL0kmvcq$G\u]F3W87
     P10QYbl  C2019 08 30y(V6A0hdpj,eN;*$g:o4k2+oYBDhWpJh,kRNUIr;hxC))Gpw*BNjW87

Station data:
(807) Cerro Tololo Observatory, La Serena  (S30.169136 W70.805900)  Chile.
(F51) Pan-STARRS 1, Haleakala  (N20.707235 W156.255910)  US/Hawaii.
   Observers N. Primak, A. Schultz, S. Watters, J. Thiel, T. Goggia. Measurer
   PS1 Science Consortium. 1.8-m Ritchey-Chrétien + CCD.
(W87) Cerro Tololo-LCO C  (S30.167456 W70.804680)  Chile.

Orbital elements:  P10QYbl
   Perihelion 2019 Aug 26.466726 +/- 62.1 TT = 11:12:05 (JD 2458721.966726)
Epoch 2019 Aug 30.0 TT = JDT 2458725.5   Earth MOID: 0.8965   AutoNEOCP
M   0.69297455 +/- 12               (J2000 ecliptic)
n   0.19612816 +/- 0.0165           Peri.  253.70929 +/- 41
a   2.93388269 +/- 0.164            Node    86.35137 +/- 10
e   0.3829894 +/- 0.0322            Incl.   18.62844 +/- 0.7
P   5.03                   H 18.7   G  0.15   U 10.0  
q 1.81023667 +/- 0.105    Q 4.05752871 +/- 0.26
From 11 observations 2019 Aug. 28-30 (44.9 hr); mean residual 0".08
Residuals in arcseconds: 
190828 F51  .07-  .05-    190830 807  .02-  .12-    190830 W87  .05-  .08+    
190828 F51  .07+  .01-    190830 807  .12+  .13-    190830 W87  .05+  .02-    
190828 F51  .02+  .05+    190830 807  .09-  .24+    190830 W87  .03+  .03-    
190828 F51  .02-  .02+    190830 W87  .03-  .02-    

Ephemerides (geocentric):
Date (UTC) HH   RA              Dec         delta   r     elong  mag " sig PA
---- -- -- --  -------------   -----------  ------ ------ -----  --- ---- ---
2019 09 12 12  00 21 28.126   -40 35 27.49  .91795 1.8152 141.2 20.8 97.2 127
2019 09 12 13  00 21 26.665   -40 35 37.10  .91801 1.8153 141.2 20.8 97.8 127
2019 09 12 14  00 21 25.201   -40 35 46.65  .91807 1.8153 141.2 20.8 98.4 127
2019 09 12 15  00 21 23.735   -40 35 56.15  .91813 1.8153 141.2 20.8 99.0 127
2019 09 12 16  00 21 22.268   -40 36 05.59  .91819 1.8153 141.2 20.8 99.6 127
2019 09 12 17  00 21 20.798   -40 36 14.97  .91825 1.8154 141.1 20.8  100 127
2019 09 12 18  00 21 19.326   -40 36 24.30  .91831 1.8154 141.1 20.8  101 127
2019 09 12 19  00 21 17.852   -40 36 33.57  .91837 1.8154 141.1 20.8  101 127
2019 09 12 20  00 21 16.376   -40 36 42.79  .91843 1.8154 141.1 20.8  102 127
2019 09 12 21  00 21 14.898   -40 36 51.95  .91849 1.8155 141.1 20.8  103 127
2019 09 12 22  00 21 13.418   -40 37 01.05  .91855 1.8155 141.1 20.8  103 128
2019 09 12 23  00 21 11.936   -40 37 10.10  .91861 1.8155 141.1 20.8  104 128
2019 09 13 00  00 21 10.452   -40 37 19.09  .91867 1.8155 141.1 20.8  104 128
2019 09 13 01  00 21 08.966   -40 37 28.03  .91873 1.8156 141.1 20.8  105 128
2019 09 13 02  00 21 07.478   -40 37 36.91  .91880 1.8156 141.1 20.8  106 128
2019 09 13 03  00 21 05.988   -40 37 45.73  .91886 1.8156 141.1 20.8  106 128
2019 09 13 04  00 21 04.496   -40 37 54.49  .91892 1.8156 141.1 20.8  107 128
2019 09 13 05  00 21 03.002   -40 38 03.20  .91898 1.8157 141.1 20.8  107 128
2019 09 13 06  00 21 01.506   -40 38 11.85  .91905 1.8157 141.1 20.8  108 128
2019 09 13 07  00 21 00.008   -40 38 20.45  .91911 1.8157 141.1 20.8  109 128
2019 09 13 08  00 20 58.508   -40 38 28.99  .91917 1.8157 141.1 20.8  109 128
2019 09 13 09  00 20 57.007   -40 38 37.47  .91924 1.8158 141.1 20.8  110 128
2019 09 13 10  00 20 55.503   -40 38 45.90  .91930 1.8158 141.1 20.8  111 128
2019 09 13 11  00 20 53.997   -40 38 54.27  .91937 1.8158 141.1 20.8  111 128
2019 09 13 12  00 20 52.490   -40 39 02.58  .91943 1.8158 141.1 20.8  112 128
2019 09 13 13  00 20 50.980   -40 39 10.84  .91949 1.8159 141.1 20.8  112 128
2019 09 13 14  00 20 49.469   -40 39 19.04  .91956 1.8159 141.1 20.8  113 128
2019 09 13 15  00 20 47.955   -40 39 27.18  .91963 1.8159 141.1 20.8  114 128
2019 09 13 16  00 20 46.440   -40 39 35.26  .91969 1.8159 141.1 20.8  114 128
2019 09 13 17  00 20 44.923   -40 39 43.29  .91976 1.8160 141.0 20.8  115 128
2019 09 13 18  00 20 43.404   -40 39 51.26  .91982 1.8160 141.0 20.8  116 128
2019 09 13 19  00 20 41.883   -40 39 59.18  .91989 1.8160 141.0 20.8  116 128
2019 09 13 20  00 20 40.360   -40 40 07.04  .91996 1.8160 141.0 20.8  117 128
2019 09 13 21  00 20 38.836   -40 40 14.84  .92002 1.8161 141.0 20.8  118 128
2019 09 13 22  00 20 37.309   -40 40 22.58  .92009 1.8161 141.0 20.8  118 128
2019 09 13 23  00 20 35.781   -40 40 30.27  .92016 1.8161 141.0 20.8  119 128
2019 09 14 00  00 20 34.251   -40 40 37.90  .92023 1.8162 141.0 20.8  119 129
2019 09 14 01  00 20 32.719   -40 40 45.47  .92029 1.8162 141.0 20.8  120 129
2019 09 14 02  00 20 31.185   -40 40 52.98  .92036 1.8162 141.0 20.8  121 129
2019 09 14 03  00 20 29.650   -40 41 00.44  .92043 1.8162 141.0 20.8  121 129
2019 09 14 04  00 20 28.112   -40 41 07.84  .92050 1.8163 141.0 20.8  122 129
2019 09 14 05  00 20 26.573   -40 41 15.19  .92057 1.8163 141.0 20.8  123 129
2019 09 14 06  00 20 25.032   -40 41 22.47  .92064 1.8163 141.0 20.8  123 129
2019 09 14 07  00 20 23.489   -40 41 29.70  .92071 1.8163 141.0 20.8  124 129
2019 09 14 08  00 20 21.945   -40 41 36.88  .92078 1.8164 141.0 20.8  125 129
2019 09 14 09  00 20 20.398   -40 41 43.99  .92085 1.8164 141.0 20.8  125 129
2019 09 14 10  00 20 18.850   -40 41 51.05  .92092 1.8164 141.0 20.8  126 129
2019 09 14 11  00 20 17.300   -40 41 58.05  .92099 1.8165 141.0 20.8  127 129